{"data":{"norad_id":45152,"epoch":"2026-09-20T01:28:16.447872Z","epoch_age_seconds":52157,"freshness":"FRESH","line1":"1 45152U 20008X   26263.06130148  .00000063  00000+0  14457-3 0  9991","line2":"2 45152  87.8917  17.3856 0001637  93.8480 266.2835 13.10377249320620","mean_motion":13.10377249,"eccentricity":0.0001637,"inclination_deg":87.8917,"raan_deg":17.3856,"arg_perigee_deg":93.848,"mean_anomaly_deg":266.2835,"bstar":0.00014457,"rev_number":32062,"period_min":109.8920178215,"perigee_km":1220.4559211347,"apogee_km":1222.9441077732,"semimajor_km":7599.8370144539,"source":"CELESTRAK","updated_at":"2026-09-20T09:00:44.549048Z"}}